IRIDIUM 2 (25527 NORAD) Tracking and Keplerian Element Data

This shows tracking and keplerian element data for the satellite.

Feedback or suggestion? Click here.




ElementValue
Catalog25527
NameIRIDIUM 2
Epoch Orbit40644
Epoch Day159.83201555
Epoch Year2024
RAAN309.2102
Inclination85.4966
Eccentricity0.0004753
Argument of Perigee266.6296
Mean Anonmoly93.4439
Mean Motion15.88995973
Decay Rate0.0040261
L11 25527U 98066A 24159.83201555 .00402610 57903-4 14243-2 0 9997
L22 25527 85.4966 309.2102 0004753 266.6296 93.4439 15.88995973406448



Live tracking and technical data element details for IRIDIUM 2 (NORAD 25527). IRIDIUM 2 can be tracked NOW for your location showing map with azimuth and elevation plus other details from your city location.







IsCatalogInMostPopularTable: catalog: 25527, numindb: 412
Update: records affected: 1



GetName: 25527 IRIDIUM 2

Hit Count: updated at: Thu, 15 May 2025 10:54:25 GMT